[[{"header":{"parameterUnit":"m.s-1","parameterCategory":1,"la1":30.2991,"la2":30.254,"lo1":-89.0895,"lo2":-89.0444,"dy":0.0017,"dx":0.0017,"nx":28,"ny":28,"refTime":"2023-10-21T09:00:00:Z","depth":0,"parameterNumber":2,"parameterNumberName":"U-component_of_WINDS"},"data":[0,0,0,0,0,0,0,0,0,0,0,0,0,0,0,0,0,0,0,0,0,0,0,0,0,0,0,0,0,0,0,0,0,0,0,0,0,0,0,0,0,0,0,0,0,0,0,0,0,0,0,0,0,0,0,0,0,0,-2.569,-2.569,0,-2.5644,-2.5643,-2.5643,-2.5541,-2.5539,-2.5536,-2.5534,-2.549,-2.5491,-2.5492,0,0,0,0,0,0,0,0,0,0,0,0,0,-2.5695,-2.5696,-2.569,-2.569,-2.5689,-2.5644,-2.5643,-2.5643,-2.5541,-2.5538,-2.5536,-2.5534,-2.549,-2.5491,-2.5492,0,0,0,0,0,0,0,0,0,0,0,0,0,-2.5676,-2.5696,-2.569,-2.5633,-2.5627,-2.5644,-2.5643,-2.5642,-2.5542,-2.5538,-2.5535,-2.5532,-2.549,-2.5491,-2.5492,-2.5562,0,0,-2.5495,-2.5496,0,0,0,0,0,0,0,0,-2.5677,-2.5676,-2.5642,-2.5637,-2.563,-2.5595,-2.5629,-2.5616,-2.5542,-2.5574,-2.5534,-2.5531,-2.5528,-2.5526,-2.5524,-2.556,-2.5558,-2.5495,-2.5496,-2.5497,-2.5497,0,0,0,0,0,0,0,-2.5678,-2.5677,-2.5672,-2.5641,-2.5635,-2.5611,-2.5605,-2.5626,-2.5569,-2.5571,-2.5564,-2.5559,-2.5524,-2.5523,-2.5522,-2.5557,-2.5495,-2.5496,-2.5497,-2.5498,-2.5652,-2.5655,0,0,0,0,0,0,-2.5688,-2.5679,-2.5673,-2.567,-2.5646,-2.5613,-2.5606,-2.5609,-2.5569,-2.5559,-2.5562,-2.5555,-2.5522,-2.5521,-2.552,-2.5601,-2.5497,-2.5498,-2.5498,-2.5648,-2.5653,-2.5656,0,0,0,0,0,0,-2.5688,-2.5688,-2.5675,-2.5673,-2.5669,-2.5617,-2.5621,-2.561,-2.5609,-2.5562,-2.5552,-2.5571,-2.552,-2.5518,-2.5553,-2.5598,-2.5498,-2.5499,-2.5644,-2.565,-2.5654,-2.5763,0,0,0,0,0,0,-2.5689,-2.5689,-2.5713,-2.5674,-2.567,-2.5707,-2.5624,-2.5612,-2.5611,-2.5601,-2.5567,-2.5559,-2.5517,-2.5552,-2.5554,-2.5598,-2.55,-2.564,-2.5647,-2.5653,-2.5755,-2.5772,-2.5785,0,0,0,0,0,-2.5689,-2.5746,-2.5715,-2.5715,-2.5699,-2.571,-2.5708,-2.5658,-2.5615,-2.564,-2.5611,-2.556,-2.5593,-2.5556,-2.5558,-2.5603,-2.5637,-2.5645,-2.5652,-2.5749,-2.5768,-2.5785,0,0,0,0,0,0,-2.5792,-2.5739,-2.5705,-2.575,-2.5735,-2.5693,-2.5723,-2.568,-2.5677,-2.5668,-2.5608,-2.5601,-2.5644,-2.5627,-2.5586,-2.567,-2.5607,-2.5616,-2.568,-2.5698,-2.5713,-2.5716,-2.5501,0,0,0,0,0,-2.582,-2.5832,-2.5786,-2.583,-2.5825,-2.5776,-2.5778,-2.5742,-2.5724,-2.5718,-2.569,-2.5676,-2.5684,-2.569,-2.5694,-2.5753,-2.5746,-2.5785,-2.58,-2.5812,-2.5821,-2.5854,-2.5871,-2.5681,-2.5681,-2.5681,0,0,-2.5878,-2.5851,-2.5862,-2.5851,-2.5835,-2.5851,-2.5771,-2.579,-2.5802,-2.5721,-2.5752,-2.5732,-2.5713,-2.576,-2.578,-2.5747,-2.5872,-2.5822,-2.5833,-2.5834,-2.5863,-2.5881,-2.5897,-2.5687,-2.5686,-2.5685,0,0,-2.5992,-2.5971,-2.6007,-2.5994,-2.5971,-2.5938,-2.5948,-2.5912,-2.5896,-2.5926,-2.5866,-2.588,-2.5893,-2.5883,-2.588,-2.5994,-2.5948,-2.5997,-2.6075,-2.6108,-2.6123,-2.6136,-2.6179,-2.6195,-2.6005,-2.6005,-2.6005,0,-2.6067,-2.6086,-2.6032,-2.6055,-2.6053,-2.5981,-2.6019,-2.6008,-2.5989,-2.599,-2.5953,-2.5971,-2.5952,-2.5998,-2.6026,-2.6025,-2.6036,-2.6,-2.6125,-2.6137,-2.6149,-2.6189,-2.6205,-2.6011,-2.6011,-2.601,-2.6009,0,-2.6181,-2.6196,-2.6228,-2.6211,-2.6213,-2.6244,-2.6196,-2.6204,-2.6168,-2.6141,-2.6174,-2.615,-2.615,-2.6158,-2.6122,-2.62,-2.618,-2.6135,-2.6071,-2.6174,-2.6211,-2.6226,-2.602,-2.6018,-2.6016,-2.6015,0,0,-2.6356,-2.6311,-2.6323,-2.6316,-2.6287,-2.6299,-2.6328,-2.6327,-2.6337,-2.6327,-2.6351,-2.6366,-2.6325,-2.6321,-2.6284,-2.6313,-2.6408,-2.6265,-2.6263,-2.6294,-2.6495,-2.653,-2.6549,-2.6378,-2.6381,-2.6383,-2.6498,0,-2.6464,-2.6509,-2.6462,-2.6518,-2.6533,-2.6466,-2.6492,-2.6479,-2.6455,-2.6465,-2.6438,-2.6451,-2.6394,-2.6392,-2.6418,-2.6391,-2.6448,-2.6382,-2.6402,-2.6404,-2.641,-2.6568,-2.6604,-2.6713,-2.6511,-2.6514,-2.6516,0,-2.6595,-2.6591,-2.6649,-2.6619,-2.6624,-2.6647,-2.6645,-2.6655,-2.664,-2.662,-2.6618,-2.6574,-2.6603,-2.6541,-2.6581,-2.6538,-2.6543,-2.6532,-2.6535,-2.6536,-2.6466,-2.6574,-2.6746,-2.6764,-2.6537,-2.6536,-2.6534,0,-2.6719,-2.6729,-2.6765,-2.6761,-2.6727,-2.6746,-2.6733,-2.6714,-2.6718,-2.6716,-2.6718,-2.672,-2.6722,-2.6725,-2.6685,-2.6642,-2.6732,-2.6665,-2.6718,-2.672,-2.674,-2.674,-2.6918,-2.6743,-2.6742,-2.6742,-2.6742,0,-2.6845,-2.6883,-2.6821,-2.6844,-2.6886,-2.6833,-2.6877,-2.6857,-2.6842,-2.6861,-2.6804,-2.6824,-2.6768,-2.6782,-2.6751,-2.6791,-2.6792,-2.6779,-2.677,-2.6784,-2.6786,-2.6788,-2.678,-2.6746,-2.6745,-2.6744,-2.6744,0,-2.699,-2.695,-2.6986,-2.6952,-2.6944,-2.6977,-2.6948,-2.6969,-2.6942,-2.6968,-2.6971,-2.6929,-2.6944,-2.6903,-2.6911,-2.689,-2.6949,-2.6928,-2.6954,-2.6948,-2.7005,-2.7001,-2.7191,-2.7214,-2.7024,-2.7025,-2.7027,0,-2.7073,-2.7101,-2.7071,-2.708,-2.707,-2.7084,-2.7088,-2.7038,-2.7045,-2.7032,-2.7055,-2.7065,-2.707,-2.7098,-2.7069,-2.7076,-2.7055,-2.7122,-2.7056,-2.7071,-2.7059,-2.7058,-2.7062,-2.7135,-2.7138,-2.714,-2.7141,0,-2.7226,-2.7205,-2.7212,-2.7214,-2.722,-2.7219,-2.7214,-2.7225,-2.7172,-2.7183,-2.7197,-2.7202,-2.7211,-2.7223,-2.7224,-2.7213,-2.717,-2.7162,-2.7175,-2.7191,-2.7206,-2.7201,-2.6993,-2.7158,-2.7156,-2.7155,-2.7154,-2.7154,-2.7343,-2.7367,-2.735,-2.736,-2.7352,-2.7349,-2.7368,-2.7344,-2.7355,-2.7358,-2.7329,-2.7351,-2.7338,-2.7336,-2.7329,-2.7347,-2.7317,-2.7335,-2.734,-2.7346,-2.7357,-2.7203,-2.7347,-2.7346,-2.7346,-2.7345,-2.7345,0,-2.7495,-2.7481,-2.7492,-2.7487,-2.7497,-2.7454,-2.7448,-2.7459,-2.7478,-2.747,-2.7477,-2.7496,-2.7508,-2.7481,-2.749,-2.751,-2.749,-2.7514,-2.7512,-2.7511,-2.7382,-2.737,-2.7529,-2.7529,-2.7529,-2.7529,-2.7529,-2.7529,-2.7574,-2.7612,-2.759,-2.7625,-2.7611,-2.7631,-2.7631,-2.763,-2.7623,-2.7646,-2.7656,-2.7639,-2.7624,-2.7632,-2.7642,-2.7634,-2.7641,-2.7672,-2.7658,-2.7538,-2.752,-2.7503,-2.7492,-2.7673,-2.7674,-2.7786,-2.7787,-2.7788]},{"header":{"parameterUnit":"m.s-1","parameterCategory":1,"la1":30.2991,"la2":30.254,"lo1":-89.0895,"lo2":-89.0444,"dy":0.0017,"dx":0.0017,"nx":28,"ny":28,"refTime":"2023-10-21T09:00:00:Z","depth":0,"parameterNumber":3,"parameterNumberName":"V-component_of_WINDS"},"data":[0,0,0,0,0,0,0,0,0,0,0,0,0,0,0,0,0,0,0,0,0,0,0,0,0,0,0,0,0,0,0,0,0,0,0,0,0,0,0,0,0,0,0,0,0,0,0,0,0,0,0,0,0,0,0,0,0,0,2.0233,2.0232,0,2.0153,2.0152,2.0151,2.0151,2.0152,2.0153,2.0154,2.0064,2.0061,2.0058,0,0,0,0,0,0,0,0,0,0,0,0,0,2.0379,2.0376,2.0233,2.0232,2.0231,2.0153,2.0152,2.0151,2.0151,2.0152,2.0153,2.0155,2.0065,2.0061,2.0057,0,0,0,0,0,0,0,0,0,0,0,0,0,2.0309,2.0376,2.0233,2.0222,2.022,2.0154,2.0152,2.0151,2.0151,2.0152,2.0154,2.0155,2.0067,2.0062,2.0057,1.9994,0,0,2.0041,2.0039,0,0,0,0,0,0,0,0,2.0313,2.0303,2.0224,2.0222,2.022,2.0164,2.0171,2.0098,2.015,2.0177,2.0154,2.0156,2.0096,2.0088,2.007,1.999,1.9986,2.0041,2.0038,2.0036,2.0034,0,0,0,0,0,0,0,2.0318,2.0307,2.0201,2.0223,2.0221,2.0219,2.021,2.0157,2.0128,2.0174,2.0174,2.0165,2.0095,2.0074,2.0067,1.9985,2.0041,2.0037,2.0033,2.0031,1.9849,1.9847,0,0,0,0,0,0,2.0326,2.0311,2.0204,2.0199,2.0272,2.0215,2.0206,2.018,2.0129,2.0122,2.0164,2.0166,2.0082,2.0073,2.0064,1.9987,2.0036,2.0031,2.0028,1.9851,1.9849,1.9847,0,0,0,0,0,0,2.0329,2.0316,2.0207,2.0255,2.0241,2.0211,2.0182,2.0178,2.0158,2.0121,2.0115,2.0149,2.0083,2.0071,2.0012,1.9984,2.0029,2.0024,1.9853,1.985,1.9848,1.9832,0,0,0,0,0,0,2.0333,2.0318,2.0295,2.0254,2.0238,2.0158,2.018,2.0175,2.015,2.0151,2.0105,2.0099,2.0084,2.002,2.0007,1.9978,2.002,1.9855,1.9852,1.9849,1.9834,1.9829,1.9824,0,0,0,0,0,2.0338,2.0291,2.0293,2.028,2.0209,2.0156,2.0147,2.0132,2.0148,2.0123,2.01,2.01,1.999,2.0014,1.9999,1.9968,1.9857,1.9853,1.9849,1.9837,1.983,1.9824,0,0,0,0,0,0,2.0325,2.0286,2.0287,2.0227,2.0195,2.0156,2.0125,2.0125,2.0086,2.0089,2.007,2.006,2.0,1.9978,2.0006,1.9904,1.9925,1.9918,1.9921,1.9914,1.9908,1.9914,2.0016,0,0,0,0,0,2.0316,2.0279,2.0245,2.0194,2.0179,2.0155,2.0131,2.0123,2.0089,2.0074,2.0047,2.0011,1.9968,1.994,1.9899,1.9833,1.9821,1.9804,1.9799,1.9794,1.9787,1.975,1.9742,1.9833,1.9833,1.9834,0,0,2.0295,2.0269,2.0246,2.0191,2.0166,2.0125,2.0143,2.0099,2.0069,2.0067,2.001,1.9988,1.9947,1.9884,1.9855,1.9864,1.976,1.9789,1.9786,1.9781,1.9745,1.9736,1.9729,1.9831,1.9831,1.9832,0,0,2.0236,2.0213,2.0169,2.0144,2.0107,2.0091,2.0081,2.0043,2.0029,1.9972,1.997,1.9933,1.9859,1.983,1.9806,1.9739,1.9737,1.9726,1.9696,1.966,1.9653,1.9647,1.9621,1.9612,1.972,1.972,1.972,0,2.0213,2.0155,2.0145,2.0101,2.0077,2.0078,2.0031,2.0007,1.9957,1.9939,1.9951,1.986,1.9832,1.9762,1.9746,1.9727,1.9713,1.9729,1.9656,1.9649,1.9642,1.9618,1.9609,1.9718,1.9718,1.9719,1.9719,0,2.0128,2.0088,2.0056,2.0011,1.9983,1.9938,1.992,1.9893,1.9888,1.9871,1.9813,1.9781,1.9733,1.9716,1.9709,1.9645,1.9652,1.966,1.9679,1.9633,1.9609,1.96,1.9716,1.9717,1.9717,1.9718,0,0,2.0055,2.0008,1.9996,1.9976,1.9937,1.9904,1.9859,1.9815,1.9792,1.9758,1.9718,1.9658,1.9666,1.9638,1.9629,1.9598,1.9545,1.9609,1.9608,1.9597,1.9471,1.9463,1.9453,1.9546,1.9544,1.9542,1.9474,0,1.999,1.9914,1.9904,1.9835,1.9796,1.9798,1.9759,1.9729,1.9712,1.9676,1.9657,1.9614,1.9628,1.9612,1.9581,1.9558,1.9519,1.9563,1.9506,1.9504,1.9514,1.9441,1.9433,1.9369,1.9465,1.9463,1.9462,0,1.9904,1.9871,1.9798,1.9765,1.9749,1.9714,1.9673,1.964,1.9606,1.9596,1.9567,1.9562,1.9514,1.9538,1.947,1.9501,1.9477,1.9462,1.9459,1.9451,1.9478,1.9429,1.9349,1.9339,1.9448,1.9449,1.945,0,1.9856,1.9794,1.9742,1.9725,1.9685,1.9661,1.9643,1.9611,1.9586,1.955,1.9533,1.9491,1.9467,1.9434,1.9418,1.9437,1.9351,1.9374,1.9339,1.9339,1.9318,1.9319,1.9231,1.9307,1.9307,1.9307,1.9307,0,1.9783,1.9738,1.972,1.9688,1.9638,1.9628,1.9577,1.956,1.9532,1.9495,1.9494,1.9459,1.944,1.9402,1.9389,1.9334,1.9323,1.9312,1.9309,1.9311,1.9312,1.9293,1.9296,1.9304,1.9305,1.9306,1.9306,0,1.972,1.9707,1.965,1.9619,1.961,1.9574,1.9546,1.9514,1.95,1.9453,1.9441,1.9417,1.9372,1.9354,1.9297,1.9289,1.9225,1.9226,1.9237,1.9236,1.9201,1.9204,1.9096,1.9081,1.9169,1.9168,1.9167,0,1.9673,1.9639,1.9605,1.9582,1.9564,1.9526,1.9501,1.949,1.9464,1.9424,1.9397,1.9353,1.9317,1.9245,1.9221,1.9178,1.9176,1.9142,1.9169,1.9173,1.9173,1.9175,1.9171,1.9135,1.9134,1.9134,1.9133,0,1.9591,1.9587,1.9553,1.9516,1.9488,1.9457,1.9428,1.9409,1.9393,1.9363,1.9319,1.9292,1.9236,1.9192,1.9148,1.9127,1.9126,1.9125,1.9115,1.9115,1.9123,1.9117,1.9221,1.9127,1.9128,1.9128,1.9128,1.9129,1.9533,1.9503,1.9475,1.9437,1.9415,1.9388,1.9357,1.934,1.9304,1.926,1.9255,1.9208,1.9175,1.9117,1.9094,1.9055,1.9064,1.9049,1.9044,1.904,1.9037,1.9132,1.9048,1.9048,1.9048,1.9048,1.9048,0,1.9449,1.9433,1.9398,1.9359,1.9329,1.9335,1.9304,1.9277,1.9236,1.9207,1.9173,1.9122,1.908,1.9054,1.9011,1.8984,1.8983,1.8973,1.8973,1.8968,1.9033,1.9046,1.8975,1.8975,1.8975,1.8975,1.8975,1.8975,1.9402,1.9352,1.9345,1.9283,1.9266,1.9221,1.9202,1.9177,1.9154,1.9099,1.9065,1.9049,1.9021,1.8976,1.8937,1.8931,1.8914,1.8903,1.8896,1.8956,1.8964,1.8971,1.8983,1.89,1.89,1.8835,1.8834,1.8834]}]]